�������l�o���
Date,Time,MP-1(��Sv/h),MP-2(��Sv/h),MP-3(��Sv/h),MP-4(��Sv/h),MP-5(��Sv/h),MP-6(��Sv/h),MP-7(��Sv/h),MP-8(��Sv/h),����,����(m/s),���J
2020/05/07,00:00,0.697,1.006,0.665,1.237,0.879,0.397,0.699,0.660,�k�k��,4.1,��
2020/05/07,00:10,0.698,1.008,0.665,1.236,0.878,0.397,0.699,0.661,�k�k��,4.9,��
2020/05/07,00:20,0.699,1.009,0.665,1.234,0.878,0.399,0.700,0.659,�k�k��,4.9,��
2020/05/07,00:30,0.700,1.005,0.666,1.238,0.877,0.398,0.698,0.660,�k,4.7,��
2020/05/07,00:40,0.697,1.007,0.666,1.237,0.879,0.397,0.700,0.659,�k,5.2,��
2020/05/07,00:50,0.698,1.006,0.664,1.236,0.878,0.397,0.698,0.659,�k�k��,5.4,��
2020/05/07,01:00,0.697,1.007,0.664,1.235,0.878,0.397,0.700,0.660,�k,5.7,��
2020/05/07,01:10,0.698,1.008,0.665,1.236,0.877,0.398,0.700,0.660,�k,6.5,��
2020/05/07,01:20,0.697,1.008,0.664,1.236,0.877,0.398,0.701,0.661,�k,6.6,��
2020/05/07,01:30,0.700,1.007,0.666,1.234,0.879,0.398,0.698,0.660,�k,6.4,��
2020/05/07,01:40,0.698,1.007,0.664,1.235,0.878,0.396,0.699,0.660,�k,5.3,��
2020/05/07,01:50,0.698,1.008,0.664,1.237,0.878,0.397,0.698,0.659,�k,6.0,��
2020/05/07,02:00,0.699,1.007,0.664,1.236,0.878,0.397,0.700,0.659,�k,7.0,��
2020/05/07,02:10,0.697,1.007,0.666,1.238,0.876,0.396,0.699,0.661,�k,6.6,��
2020/05/07,02:20,0.697,1.007,0.664,1.236,0.874,0.398,0.699,0.659,�k,5.2,��
2020/05/07,02:30,0.697,1.007,0.664,1.234,0.875,0.396,0.700,0.661,�k�k��,5.2,��
2020/05/07,02:40,0.696,1.006,0.665,1.237,0.877,0.397,0.699,0.658,�k�k��,4.3,��
2020/05/07,02:50,0.696,1.005,0.664,1.237,0.878,0.399,0.699,0.660,�k�k��,6.0,��
2020/05/07,03:00,0.696,1.006,0.664,1.235,0.876,0.397,0.700,0.662,�k�k��,5.2,��
2020/05/07,03:10,0.696,1.007,0.663,1.235,0.875,0.398,0.699,0.659,�k�k��,5.5,��
2020/05/07,03:20,0.696,1.006,0.662,1.237,0.877,0.397,0.699,0.659,�k,5.7,��
2020/05/07,03:30,0.696,1.006,0.664,1.237,0.876,0.397,0.698,0.658,�k,5.6,��
2020/05/07,03:40,0.697,1.002,0.663,1.236,0.875,0.398,0.697,0.658,�k,5.7,��
2020/05/07,03:50,0.694,1.006,0.664,1.235,0.875,0.397,0.700,0.659,�k,4.8,��
2020/05/07,04:00,0.696,1.005,0.664,1.236,0.877,0.397,0.699,0.660,�k,4.6,��
2020/05/07,04:10,0.694,1.004,0.663,1.237,0.878,0.398,0.697,0.659,�k,5.3,��
2020/05/07,04:20,0.695,1.005,0.662,1.236,0.876,0.398,0.698,0.660,�k,6.1,��
2020/05/07,04:30,0.694,1.005,0.663,1.235,0.877,0.397,0.698,0.660,�k,5.1,��
2020/05/07,04:40,0.695,1.007,0.662,1.235,0.877,0.396,0.697,0.660,�k�k��,5.5,��
2020/05/07,04:50,0.696,1.006,0.663,1.236,0.876,0.397,0.698,0.660,�k�k��,7.0,��
2020/05/07,05:00,0.695,1.005,0.663,1.235,0.876,0.396,0.698,0.659,�k�k��,6.2,��
2020/05/07,05:10,0.697,1.005,0.662,1.237,0.875,0.397,0.698,0.658,�k�k��,7.5,��
2020/05/07,05:20,0.695,1.005,0.663,1.235,0.878,0.397,0.697,0.657,�k,6.8,��
2020/05/07,05:30,0.696,1.005,0.661,1.235,0.877,0.397,0.698,0.661,�k,5.6,��
2020/05/07,05:40,0.694,1.005,0.661,1.236,0.876,0.399,0.697,0.661,�k,5.7,��
2020/05/07,05:50,0.695,1.005,0.664,1.237,0.877,0.397,0.699,0.659,�k,6.4,��
2020/05/07,06:00,0.697,1.006,0.664,1.238,0.877,0.397,0.699,0.661,�k,5.9,��
2020/05/07,06:10,0.696,1.005,0.665,1.238,0.877,0.398,0.698,0.660,�k,6.1,��
2020/05/07,06:20,0.696,1.006,0.664,1.236,0.876,0.398,0.699,0.661,�k,5.5,��
2020/05/07,06:30,0.696,1.007,0.665,1.238,0.876,0.399,0.700,0.662,�k,4.8,��
2020/05/07,06:40,0.696,1.009,0.666,1.240,0.876,0.399,0.700,0.661,�k�k��,5.7,��
2020/05/07,06:50,0.698,1.008,0.664,1.238,0.877,0.397,0.701,0.659,�k�k��,6.3,��
2020/05/07,07:00,0.699,1.010,0.664,1.239,0.876,0.398,0.702,0.661,�k,5.3,��
2020/05/07,07:10,0.699,1.009,0.666,1.237,0.876,0.395,0.700,0.661,�k,5.5,��
2020/05/07,07:20,0.698,1.007,0.666,1.236,0.878,0.397,0.700,0.660,�k�k��,4.5,��
2020/05/07,07:30,0.703,1.006,0.666,1.237,0.879,0.396,0.699,0.661,�k,4.1,��
2020/05/07,07:40,0.700,1.008,0.666,1.239,0.879,0.395,0.700,0.661,�k�k��,5.8,��
2020/05/07,07:50,0.702,1.008,0.665,1.239,0.879,0.397,0.701,0.661,�k�k��,6.2,��
2020/05/07,08:00,0.702,1.009,0.666,1.241,0.879,0.397,0.699,0.661,�k�k��,3.8,��
2020/05/07,08:10,0.703,1.009,0.667,1.240,0.881,0.397,0.700,0.659,�k�k��,7.2,��
2020/05/07,08:20,0.703,1.008,0.668,1.238,0.880,0.397,0.701,0.658,�k�k��,8.0,��
2020/05/07,08:30,0.703,1.012,0.668,1.241,0.882,0.396,0.698,0.659,�k�k��,7.9,��
2020/05/07,08:40,0.700,1.007,0.670,1.240,0.879,0.396,0.698,0.660,�k�k��,7.6,��
2020/05/07,08:50,0.700,1.014,0.668,1.241,0.881,0.397,0.698,0.660,�k�k��,8.2,��
2020/05/07,09:00,0.703,1.009,0.667,1.239,0.880,0.397,0.696,0.657,�k�k��,8.3,��
2020/05/07,09:10,0.701,1.010,0.667,1.239,0.881,0.396,0.699,0.659,�k�k��,8.2,��
2020/05/07,09:20,0.701,1.010,0.666,1.239,0.880,0.396,0.698,0.656,�k�k��,7.7,��
2020/05/07,09:30,0.702,1.011,0.666,1.242,0.883,0.396,0.697,0.656,�k�k��,7.1,��
2020/05/07,09:40,0.702,1.012,0.667,1.242,0.884,0.396,0.698,0.658,�k��,7.1,��
2020/05/07,09:50,0.702,1.010,0.666,1.240,0.883,0.396,0.700,0.657,�k�k��,5.9,��
2020/05/07,10:00,0.703,1.010,0.667,1.241,0.884,0.397,0.700,0.659,�k��,6.5,��
2020/05/07,10:10,0.704,1.009,0.667,1.240,0.882,0.398,0.699,0.659,�k�k��,6.1,��
2020/05/07,10:20,0.703,1.011,0.668,1.243,0.881,0.397,0.699,0.658,�k�k��,4.7,��
2020/05/07,10:30,0.704,1.012,0.669,1.241,0.883,0.396,0.699,0.657,�k�k��,7.3,��
2020/05/07,10:40,0.702,1.013,0.666,1.242,0.883,0.399,0.700,0.662,�k�k��,7.8,��
2020/05/07,10:50,0.704,1.015,0.667,1.242,0.886,0.398,0.699,0.658,�k�k��,6.6,��
2020/05/07,11:00,0.704,1.012,0.667,1.243,0.885,0.395,0.699,0.658,�k��,5.0,��
2020/05/07,11:10,0.705,1.016,0.667,1.243,0.885,0.398,0.699,0.659,�k�k��,5.9,��
2020/05/07,11:20,0.703,1.015,0.669,1.244,0.888,0.399,0.698,0.660,�k�k��,6.2,��
2020/05/07,11:30,0.705,1.013,0.671,1.241,0.885,0.396,0.699,0.659,�k�k��,6.6,��
2020/05/07,11:40,0.704,1.017,0.668,1.242,0.886,0.398,0.699,0.661,�k�k��,6.1,��
2020/05/07,11:50,0.706,1.018,0.669,1.239,0.887,0.397,0.700,0.659,�k�k��,5.6,��
2020/05/07,12:00,0.706,1.018,0.670,1.239,0.888,0.396,0.701,0.660,�k�k��,7.5,��
2020/05/07,12:10,0.707,1.018,0.670,1.241,0.889,0.399,0.701,0.660,�k�k��,6.7,��
2020/05/07,12:20,0.708,1.020,0.669,1.241,0.887,0.398,0.701,0.658,�k�k��,6.4,��
2020/05/07,12:30,0.706,1.021,0.670,1.241,0.889,0.398,0.700,0.660,�k��,5.6,��
2020/05/07,12:40,0.706,1.017,0.671,1.242,0.890,0.398,0.701,0.660,�k��,5.2,��
2020/05/07,12:50,0.707,1.017,0.672,1.241,0.889,0.398,0.698,0.660,�k�k��,5.5,��
2020/05/07,13:00,0.706,1.018,0.670,1.242,0.888,0.399,0.700,0.660,�k�k��,5.4,��
2020/05/07,13:10,0.708,1.019,0.670,1.244,0.888,0.398,0.701,0.660,�k�k��,6.0,��
2020/05/07,13:20,0.708,1.018,0.669,1.245,0.888,0.397,0.700,0.659,�k�k��,6.6,��
2020/05/07,13:30,0.706,1.018,0.669,1.243,0.888,0.398,0.701,0.660,�k��,7.1,��
2020/05/07,13:40,0.704,1.017,0.670,1.243,0.887,0.398,0.699,0.660,�k��,6.0,�L
2020/05/07,13:50,0.707,1.018,0.669,1.246,0.888,0.398,0.701,0.660,�k��,6.0,��
2020/05/07,14:00,0.704,1.017,0.669,1.244,0.890,0.399,0.699,0.659,�k��,4.4,��
2020/05/07,14:10,0.708,1.019,0.669,1.247,0.889,0.398,0.700,0.659,�k�k��,4.5,��
2020/05/07,14:20,0.705,1.018,0.671,1.245,0.888,0.399,0.701,0.658,�k��,4.3,��
2020/05/07,14:30,0.705,1.020,0.671,1.245,0.891,0.398,0.701,0.658,�k��,4.9,��
2020/05/07,14:40,0.707,1.020,0.670,1.239,0.889,0.399,0.699,0.661,�k�k��,4.9,��
2020/05/07,14:50,0.706,1.022,0.669,1.242,0.889,0.398,0.699,0.659,�k�k��,4.4,��
2020/05/07,15:00,0.706,1.019,0.670,1.244,0.889,0.398,0.699,0.660,�k�k��,4.6,��
2020/05/07,15:10,0.705,1.023,0.670,1.241,0.892,0.397,0.701,0.660,�k�k��,5.4,��
2020/05/07,15:20,0.707,1.022,0.668,1.241,0.891,0.397,0.700,0.659,�k�k��,5.9,��
2020/05/07,15:30,0.707,1.022,0.670,1.242,0.890,0.397,0.699,0.660,�k�k��,6.0,��
2020/05/07,15:40,0.705,1.025,0.671,1.242,0.889,0.399,0.700,0.658,�k�k��,4.2,��
2020/05/07,15:50,0.706,1.021,0.671,1.242,0.890,0.398,0.701,0.658,�k�k��,3.6,��
2020/05/07,16:00,0.706,1.021,0.671,1.242,0.889,0.400,0.702,0.660,�k�k��,4.6,��
2020/05/07,16:10,0.706,1.022,0.671,1.241,0.890,0.399,0.700,0.659,�k�k��,4.9,��
2020/05/07,16:20,0.704,1.025,0.672,1.246,0.888,0.400,0.701,0.660,�k�k��,4.7,��
2020/05/07,16:30,0.708,1.024,0.670,1.241,0.891,0.399,0.699,0.660,�k�k��,4.9,��
2020/05/07,16:40,0.706,1.023,0.669,1.241,0.890,0.399,0.699,0.660,�k�k��,3.8,��
2020/05/07,16:50,0.708,1.025,0.669,1.240,0.891,0.401,0.701,0.661,�k�k��,4.1,��
2020/05/07,17:00,0.707,1.025,0.670,1.240,0.891,0.400,0.699,0.660,�k,3.7,��
2020/05/07,17:10,0.704,1.026,0.670,1.241,0.890,0.400,0.698,0.663,�k�k��,4.0,��
2020/05/07,17:20,0.705,1.028,0.670,1.244,0.891,0.400,0.700,0.662,�k�k��,4.4,��
2020/05/07,17:30,0.704,1.025,0.670,1.245,0.891,0.399,0.698,0.661,�k�k��,4.0,��
2020/05/07,17:40,0.707,1.025,0.669,1.244,0.890,0.400,0.701,0.664,�k�k��,4.1,��
2020/05/07,17:50,0.705,1.026,0.671,1.245,0.888,0.401,0.699,0.663,�k�k��,4.2,��
2020/05/07,18:00,0.709,1.026,0.668,1.244,0.889,0.400,0.700,0.663,�k,4.7,��
2020/05/07,18:10,0.709,1.028,0.672,1.245,0.891,0.399,0.700,0.663,�k�k��,4.9,��
2020/05/07,18:20,0.709,1.027,0.669,1.245,0.892,0.399,0.698,0.662,�k�k��,4.8,��
2020/05/07,18:30,0.706,1.027,0.671,1.245,0.894,0.398,0.700,0.662,�k�k��,3.4,��
2020/05/07,18:40,0.707,1.025,0.673,1.245,0.893,0.399,0.698,0.663,�k,4.4,��
2020/05/07,18:50,0.706,1.025,0.673,1.246,0.894,0.399,0.700,0.664,�k,4.1,��
2020/05/07,19:00,0.706,1.026,0.673,1.246,0.893,0.398,0.697,0.663,�k,4.1,��
2020/05/07,19:10,0.707,1.025,0.672,1.245,0.892,0.398,0.699,0.663,�k,4.1,��
2020/05/07,19:20,0.707,1.024,0.671,1.246,0.891,0.399,0.699,0.661,�k,3.6,��
2020/05/07,19:30,0.707,1.024,0.670,1.248,0.892,0.399,0.701,0.663,�k,3.1,��
2020/05/07,19:40,0.706,1.024,0.669,1.243,0.892,0.399,0.701,0.662,�k,2.6,��
2020/05/07,19:50,0.705,1.024,0.672,1.244,0.893,0.398,0.700,0.663,�k�k��,2.6,��
2020/05/07,20:00,0.706,1.025,0.672,1.246,0.891,0.399,0.701,0.662,�k,3.1,��
2020/05/07,20:10,0.708,1.027,0.671,1.245,0.891,0.399,0.700,0.663,�k,3.1,��
2020/05/07,20:20,0.708,1.027,0.671,1.246,0.893,0.398,0.700,0.662,�k,3.3,��
2020/05/07,20:30,0.707,1.023,0.671,1.244,0.891,0.398,0.701,0.661,�k,3.3,��
2020/05/07,20:40,0.707,1.026,0.672,1.246,0.891,0.399,0.701,0.661,�k,3.3,��
2020/05/07,20:50,0.706,1.025,0.671,1.246,0.888,0.398,0.700,0.661,�k,2.5,��
2020/05/07,21:00,0.705,1.024,0.670,1.244,0.890,0.398,0.700,0.661,�k,2.0,��
2020/05/07,21:10,0.707,1.024,0.671,1.245,0.891,0.398,0.701,0.661,�k,2.3,��
2020/05/07,21:20,0.705,1.024,0.672,1.245,0.893,0.398,0.701,0.660,�k,2.2,��
2020/05/07,21:30,0.707,1.023,0.673,1.242,0.890,0.398,0.701,0.661,�k,2.2,��
2020/05/07,21:40,0.705,1.024,0.669,1.247,0.889,0.398,0.700,0.661,�k,2.0,��
2020/05/07,21:50,0.706,1.023,0.671,1.243,0.891,0.397,0.699,0.661,�k,2.3,��
2020/05/07,22:00,0.704,1.023,0.670,1.243,0.890,0.399,0.700,0.662,�k�k��,1.5,��
2020/05/07,22:10,0.705,1.021,0.672,1.243,0.891,0.399,0.701,0.661,�k,1.2,��
2020/05/07,22:20,0.704,1.025,0.671,1.243,0.890,0.399,0.700,0.661,�k�k��,1.4,��
2020/05/07,22:30,0.705,1.024,0.670,1.247,0.890,0.399,0.702,0.660,�k�k��,1.1,��
2020/05/07,22:40,0.705,1.023,0.669,1.245,0.891,0.397,0.700,0.661,�k��,1.2,��
2020/05/07,22:50,0.704,1.023,0.671,1.247,0.892,0.399,0.700,0.662,�k�k��,1.7,��
2020/05/07,23:00,0.702,1.021,0.670,1.243,0.889,0.397,0.700,0.662,�k�k��,2.3,��
2020/05/07,23:10,0.703,1.022,0.668,1.245,0.892,0.398,0.701,0.662,�k�k��,1.9,��
2020/05/07,23:20,0.704,1.024,0.671,1.243,0.890,0.398,0.699,0.661,�k�k��,1.7,��
2020/05/07,23:30,0.704,1.024,0.669,1.243,0.890,0.397,0.701,0.662,�k��,1.7,��
2020/05/07,23:40,0.703,1.024,0.671,1.243,0.892,0.398,0.700,0.661,�k��,3.7,��
2020/05/07,23:50,0.705,1.022,0.668,1.242,0.891,0.398,0.700,0.662,�k�k��,1.7,��
